This demonstration page uses our WeatherBlox Daily Observations layout. Learn more.

Left ArrowRight Arrow

39.51506, -84.39828

Hourly Observations for September 2, 2021

Temp ( °F °C ) Dew Point ( °F °C ) Humidity (%) Winds ( mph kmh ) Pressure ( in mb ) Visibility ( mi km ) Precip ( " mm )
12:15 am 00:15 Clear 61 16.3 58 14.5 89 89 N 5 7 29.98 1015 10 16 N/A
12:35 am 00:35 Clear 60 15.7 58 14.5 93 93 N 6 9 29.99 1016 10 16 0.01 0.25
12:55 am 00:55 Clear 60 15.7 58 14.5 93 93 N 5 7 29.99 1016 10 16 0.01 0.25
1:15 am 01:15 Clear 59 15 58 14.3 96 96 N 5 7 30.00 1016 10 16 N/A
1:35 am 01:35 Clear 59 14.8 58 14.3 97 97 N N/A 30.01 1016 10 16 0.01 0.25
1:55 am 01:55 Clear 59 14.9 58 14.5 97 97 N N/A 30.01 1016 10 16 0.02 0.51
2:15 am 02:15 Clear 59 15 59 15 100 100 N N/A 30.00 1016 10 16 N/A
2:35 am 02:35 Clear 58 14.4 58 14.3 99 99 N 3 6 30.00 1016 10 16 0.01 0.25
2:55 am 02:55 Clear 58 14.7 58 14.2 97 97 N 6 9 30.01 1016 10 16 0.02 0.51
3:15 am 03:15 Clear 59 14.8 58 14.3 97 97 N 3 6 30.01 1016 10 16 N/A
3:35 am 03:35 Clear 58 14.7 58 14.2 97 97 N 3 6 30.02 1016 10 16 N/A
3:55 am 03:55 Clear 59 14.8 58 14.4 97 97 N N/A 30.02 1016 10 16 N/A
4:15 am 04:15 Partly Cloudy 57 14 57 14 100 100 N 5 7 30.02 1017 10 16 N/A
4:35 am 04:35 Clear 57 14 N/A N/A N 3 6 30.02 1017 10 16 N/A
4:55 am 04:55 Clear 57 14 57 14 100 100 N 5 7 30.03 1017 10 16 N/A
5:15 am 05:15 Clear 57 14 N/A N/A NNE 5 7 30.04 1017 10 16 N/A
5:35 am 05:35 Clear 57 14 N/A N/A NNE 5 7 30.04 1017 10 16 N/A
5:55 am 05:55 Clear 57 14 N/A N/A NNE 5 7 30.04 1017 10 16 N/A
6:15 am 06:15 Clear 57 14 N/A N/A NNE 5 7 30.05 1018 10 16 N/A
6:35 am 06:35 Clear 57 14 N/A N/A NNE 5 7 30.06 1018 10 16 N/A
6:55 am 06:55 Clear 57 14 N/A N/A NNE 5 7 30.07 1018 10 16 N/A
7:15 am 07:15 Sunny 57 14 N/A N/A NNE 6 9 30.08 1019 10 16 N/A
7:35 am 07:35 Sunny 57 14 N/A N/A NNE 6 9 30.09 1019 10 16 N/A
7:55 am 07:55 Sunny 57 14 N/A N/A N 6 9 30.10 1019 10 16 N/A
8:15 am 08:15 Sunny 59 15.1 59 14.9 99 99 NNE 7 11 30.11 1020 10 16 N/A
8:35 am 08:35 Sunny 61 16.2 60 15.4 95 95 N 7 11 30.11 1020 10 16 N/A
8:55 am 08:55 Sunny 63 17 60 15.6 92 92 NE 7 11 30.11 1020 10 16 N/A
9:15 am 09:15 Sunny 64 17.6 60 15.8 89 89 NE 8 13 30.11 1020 10 16 N/A
9:35 am 09:35 Sunny 65 18.3 60 15.8 85 85 NE 9 15 30.11 1020 10 16 0.01 0.25
9:55 am 09:55 Sunny 66 18.8 61 15.9 83 83 NNE 7 11 30.11 1020 10 16 0.01 0.25
10:15 am 10:15 Sunny 68 19.8 61 15.9 78 78 NE 8 13 30.11 1019 10 16 N/A
10:35 am 10:35 Sunny 69 20.6 60 15.6 73 73 NNE 8 13 30.11 1020 10 16 N/A
10:55 am 10:55 Sunny 71 21.7 60 15.8 69 69 NE 9 15 30.11 1020 10 16 N/A
11:15 am 11:15 Sunny 72 22.4 59 14.9 63 63 ENE 7 11 30.10 1019 10 16 N/A
11:35 am 11:35 Partly Cloudy 73 22.9 59 14.8 60 60 NE 12 19 30.10 1019 10 16 N/A
11:55 am 11:55 Partly Cloudy 72 22.4 57 13.7 58 58 E 7 11 30.11 1020 10 16 N/A
12:15 pm 12:15 Partly Cloudy 75 24.1 57 13.8 53 53 E 9 15 30.11 1019 10 16 0.01 0.25
12:35 pm 12:35 Mostly Cloudy 75 23.7 57 13.7 54 54 NNE 5 7 30.11 1020 10 16 0.01 0.25
12:55 pm 12:55 Cloudy 74 23.6 57 13.8 54 54 NNE 8 13 30.10 1019 10 16 0.01 0.25
1:15 pm 13:15 Partly Cloudy 76 24.3 56 13.5 51 51 E 5 7 30.08 1019 10 16 N/A
1:35 pm 13:35 Sunny 75 24.1 55 13 50 50 NE 5 7 30.09 1019 10 16 N/A
1:55 pm 13:55 Partly Cloudy 77 24.9 56 13.4 49 49 E 7 11 30.08 1019 10 16 0.01 0.25
2:15 pm 14:15 Partly Cloudy 77 24.9 56 13.2 48 48 N 7 11 30.07 1018 10 16 N/A
2:35 pm 14:35 Partly Cloudy 77 25.2 56 13.5 48 48 NNE 6 9 30.07 1018 10 16 N/A
2:55 pm 14:55 Partly Cloudy 77 25.2 54 12.2 44 44 NNE 5 7 30.07 1018 10 16 0.01 0.25
3:15 pm 15:15 Sunny 77 25.1 55 12.6 46 46 NNE 3 6 30.07 1018 10 16 N/A
3:35 pm 15:35 Sunny 78 25.7 54 12 43 43 NNE 8 13 30.06 1018 10 16 N/A
3:55 pm 15:55 Sunny 77 25.2 52 10.9 41 41 N 9 15 30.05 1018 10 16 N/A
4:15 pm 16:15 Sunny 78 25.6 51 10.5 39 39 E 5 7 30.05 1018 10 16 0.01 0.25
4:35 pm 16:35 Sunny 78 25.8 51 10.4 38 38 NE 9 15 30.05 1018 10 16 0.01 0.25
4:55 pm 16:55 Sunny 78 25.7 51 10.6 39 39 N 5 7 30.05 1018 10 16 0.01 0.25
5:15 pm 17:15 Sunny 78 25.8 51 10.8 39 39 N 7 11 30.05 1018 10 16 N/A
5:35 pm 17:35 Sunny 78 25.6 51 10.6 39 39 NNE 7 11 30.05 1018 10 16 N/A
5:55 pm 17:55 Sunny 78 25.4 51 10.5 39 39 NNE 9 15 30.05 1018 10 16 0.01 0.25
6:15 pm 18:15 Sunny 77 25.2 52 11.1 41 41 NNE 6 9 30.05 1018 10 16 N/A
6:35 pm 18:35 Sunny 77 25 51 10.3 40 40 NNE 5 7 30.05 1018 10 16 N/A
6:55 pm 18:55 Sunny 75 24.1 53 11.7 46 46 NNE 6 9 30.06 1018 10 16 N/A
7:15 pm 19:15 Sunny 73 22.7 54 12.4 52 52 N 3 6 30.06 1018 10 16 N/A
7:35 pm 19:35 Sunny 71 21.7 59 14.8 65 65 N 5 7 30.07 1018 10 16 N/A
7:55 pm 19:55 Sunny 69 20.7 59 14.8 69 69 N 3 6 30.08 1019 10 16 0.01 0.25
8:15 pm 20:15 Clear 66 18.8 59 15.2 80 80 N 7 11 30.09 1019 10 16 N/A
8:35 pm 20:35 Clear 66 18.8 59 14.8 78 78 NNE 3 6 30.09 1019 10 16 N/A
8:55 pm 20:55 Clear 65 18.3 58 14.2 77 77 N 5 7 30.10 1019 10 16 N/A
9:15 pm 21:15 Clear 63 17.4 60 15.3 88 88 N 3 6 30.11 1020 10 16 N/A
9:35 pm 21:35 Clear 61 16.1 60 15.7 97 97 NNW 3 6 30.11 1020 10 16 N/A
9:55 pm 21:55 Clear 61 16.2 60 15.5 96 96 NE 3 6 30.11 1020 10 16 N/A
10:15 pm 22:15 Clear 61 16 59 15.1 94 94 N N/A 30.12 1020 10 16 N/A
10:35 pm 22:35 Clear 61 16.3 60 15.3 94 94 NNE 5 7 30.12 1020 10 16 0.01 0.25
10:55 pm 22:55 Clear 60 15.6 60 15.4 99 99 NNE 5 7 30.13 1020 10 16 0.01 0.25
11:15 pm 23:15 Clear 61 15.9 58 14.5 91 91 NE 5 7 30.12 1020 10 16 N/A
11:35 pm 23:35 Clear 60 15.5 60 15.3 99 99 N 3 6 30.12 1020 10 16 N/A
11:55 pm 23:55 Clear 58 14.7 58 14.6 99 99 NNE 5 7 30.13 1020 10 16 N/A

Powered by AerisWeather